Flight Track Log - Related Links

Times and Time Zones

All times are in EDT time to prevent confusion due to time zone crossing. See the WJA1217 flight status page for this flight to view local times or setup timezone preferences in your user account.

Time Position Orientation Groundspeed Altitude Reporting Facility
EDT Latitude Longitude Course Direction KTS MPH feet Rate Location/Type
10:16PM 40.7710 -73.8560 303° West 600  Level FlightAware
10:16PM 40.7620 -73.8440 135° Southeast 161 185 1,500 2,600 Climbing FlightAware
10:17PM 40.7510 -73.8410 168° South 172 198 1,900 1,400 Climbing FlightAware
10:17PM 40.7430 -73.8380 164° South 201 231 2,200 2,700 Climbing FlightAware
10:17PM 40.7240 -73.8130 135° Southeast 216 249 3,700 3,600 Climbing FlightAware
10:17PM 40.7230 -73.8050 99° East 215 247 4,000 3,103 Climbing FlightAware
10:18PM 40.7330 -73.7760 66° East 217 250 5,200 2,364 Climbing FlightAware
10:18PM 40.7410 -73.7690 34° Northeast 222 255 5,300 462 Climbing FlightAware
10:18PM 40.7450 -73.7680 11° North 224 258 5,300 545 Level FlightAware
10:18PM 40.7520 -73.7660 12° North 226 260 5,400 1,161 Climbing FlightAware
10:19PM 40.7760 -73.7790 338° Northwest 262 302 5,900 1,636 Climbing FlightAware
10:19PM 40.7920 -73.8050 309° West 266 306 6,600 2,769 Climbing FlightAware
10:19PM 40.8060 -73.8300 307° West 271 312 7,700 3,692 Climbing FlightAware
10:20PM 40.8220 -73.8570 308° West 270 311 9,000 3,429 Climbing FlightAware
10:20PM 40.8460 -73.9030 305° West 280 322 10,900 2,595 Climbing FlightAware
10:21PM 40.8780 -73.9600 307° West 322 371 12,200 1,655 Climbing FlightAware
10:21PM 40.9020 -73.9820 325° Northwest 349 402 12,500 1,585 Climbing FlightAware
10:22PM 40.9540 -74.0180 332° Northwest 378 435 13,600 2,348 Climbing FlightAware
10:22PM 41.0090 -74.0600 330° Northwest 395 455 15,200 1,833 Climbing FlightAware
10:23PM 41.0690 -74.1040 331° Northwest 408 470 15,800 740 Climbing FlightAware
10:23PM 41.1290 -74.1490 331° Northwest 408 470 16,100 247 Climbing FlightAware
10:24PM 41.1870 -74.1920 331° Northwest 407 468 16,100  Level FlightAware
10:25PM 41.2400 -74.2320 330° Northwest 406 467 16,100  Level FlightAware
10:25PM 41.2970 -74.2750 330° Northwest 408 470 16,100 761 Level FlightAware
10:26PM 41.3550 -74.3180 331° Northwest 395 455 17,000 2,036 Climbing FlightAware
10:26PM 41.3870 -74.3450 328° Northwest 384 442 18,000 3,263 Climbing FlightAware
10:27PM 41.4300 -74.4110 311° West 385 443 20,100 3,205 Climbing FlightAware
10:27PM 41.4600 -74.4810 300° West 391 450 21,900 2,735 Climbing FlightAware
10:28PM 41.4910 -74.5530 300° West 405 466 23,200 2,029 Climbing FlightAware
10:28PM 41.5260 -74.6340 300° West 426 490 24,200 1,417 Climbing FlightAware
10:29PM 41.5630 -74.7190 300° West 440 506 24,900 1,043 Climbing FlightAware
10:30PM 41.5960 -74.7970 300° West 439 505 25,400 1,500 Climbing FlightAware
10:30PM 41.6310 -74.8780 300° West 434 499 26,600 2,000 Climbing FlightAware
10:31PM 41.6680 -74.9650 300° West 438 504 27,800 1,973 Climbing FlightAware
10:31PM 41.7040 -75.0480 300° West 430 495 29,000 1,727 Climbing FlightAware
10:32PM 41.7340 -75.1190 300° West 419 482 29,700 882 Climbing FlightAware
10:33PM 41.7680 -75.2010 299° West 413 475 30,000 243 Climbing FlightAware
10:33PM 41.8030 -75.2830 300° West 413 475 30,000  Level FlightAware
10:34PM 41.8380 -75.3670 299° West 411 473 30,000  Level FlightAware
10:34PM 41.8730 -75.4500 300° West 410 472 30,000  Level FlightAware
10:35PM 41.9070 -75.5320 299° West 409 471 30,000  Level FlightAware
10:36PM 41.9420 -75.6140 300° West 407 468 30,000  Level FlightAware
10:36PM 41.9770 -75.7000 299° West 403 464 30,000  Level FlightAware
10:37PM 42.0070 -75.7720 299° West 402 463 30,000  Level FlightAware
10:37PM 42.0410 -75.8530 299° West 401 461 30,000  Level FlightAware
10:38PM 42.0730 -75.9300 299° West 403 464 30,000  Level FlightAware
10:39PM 42.1060 -76.0100 299° West 404 465 30,000  Level FlightAware
10:39PM 42.1340 -76.0790 299° West 404 465 30,000  Level FlightAware
10:40PM 42.1650 -76.1610 297° West 408 470 30,000  Level FlightAware
10:40PM 42.1920 -76.2430 294° West 408 470 30,000  Level FlightAware
10:41PM 42.2190 -76.3290 293° West 408 470 30,000  Level FlightAware
10:41PM 42.2430 -76.4020 294° West 407 468 30,000  Level FlightAware
10:42PM 42.2680 -76.4820 293° West 405 466 30,000  Level FlightAware
10:43PM 42.2960 -76.5700 293° West 405 466 30,000  Level FlightAware
10:43PM 42.3220 -76.6500 294° West 405 466 30,000  Level FlightAware
10:44PM 42.3480 -76.7330 293° West 406 467 30,000  Level FlightAware
10:44PM 42.3710 -76.8080 293° West 406 467 30,000  Level FlightAware
10:45PM 42.3980 -76.8940 293° West 406 467 30,000  Level FlightAware
10:46PM 42.4240 -76.9770 293° West 407 468 30,000  Level FlightAware
10:46PM 42.4480 -77.0540 293° West 408 470 30,000  Level FlightAware
10:47PM 42.4740 -77.1380 293° West 408 470 30,000  Level FlightAware
10:47PM 42.5000 -77.2220 293° West 408 470 30,000  Level FlightAware
10:48PM 42.5270 -77.3070 293° West 408 470 30,000  Level FlightAware
10:48PM 42.5500 -77.3840 292° West 408 470 30,000  Level FlightAware
10:49PM 42.5750 -77.4660 293° West 408 470 30,000 -333 Level FlightAware
10:50PM 42.6020 -77.5520 293° West 409 471 29,600 -1,000 Descending FlightAware
10:50PM 42.6280 -77.6380 292° West 410 472 28,800 -1,167 Descending FlightAware
10:51PM 42.6540 -77.7250 292° West 413 475 28,200 -706 Descending FlightAware
10:51PM 42.6780 -77.8010 293° West 418 481 28,000 -250 Descending FlightAware
10:52PM 42.6960 -77.8350 306° West 410 472 28,000  Level FlightAware
10:52PM 42.7480 -77.8970 319° Northwest 409 471 28,000 -88 Level FlightAware
10:53PM 42.7920 -77.9480 320° Northwest 407 468 27,900 -514 Descending FlightAware
10:53PM 42.8480 -78.0130 320° Northwest 406 467 27,400 -833 Descending FlightAware
10:54PM 42.8990 -78.0660 323° Northwest 407 468 26,900 -943 Descending FlightAware
10:55PM 42.9520 -78.1190 324° Northwest 404 465 26,300 -1,083 Descending FlightAware
10:55PM 43.0070 -78.1720 325° Northwest 400 460 25,600 -1,254 Descending FlightAware
10:56PM 43.0550 -78.2160 326° Northwest 399 459 24,900 -1,652 Descending FlightAware
10:56PM 43.1130 -78.2670 327° Northwest 399 459 23,700 -2,351 Descending FlightAware
10:57PM 43.1700 -78.3150 328° Northwest 396 456 22,000 -2,829 Descending FlightAware
10:58PM 43.2230 -78.3600 328° Northwest 393 452 20,400 -3,000 Descending FlightAware
10:58PM 43.2770 -78.4070 328° Northwest 389 448 18,500 -2,912 Descending FlightAware
10:59PM 43.3260 -78.4500 327° Northwest 382 440 17,100 -2,118 Descending FlightAware
10:59PM 43.3790 -78.4950 328° Northwest 367 422 16,100 -1,765 Descending FlightAware
11:00PM 43.4250 -78.5360 327° Northwest 367 422 15,100 -1,886 Descending FlightAware
11:00PM 43.4680 -78.6020 312° West 356 410 13,900 -1,703 Descending FlightAware
11:01PM 43.5040 -78.6630 309° West 347 399 13,000 -1,588 Descending FlightAware
11:02PM 43.5340 -78.7190 306° West 326 375 12,100 -1,545 Descending FlightAware
11:02PM 43.5540 -78.7800 294° West 309 356 11,300 -1,417 Descending FlightAware
11:03PM 43.5750 -78.8480 293° West 290 334 10,400 -1,345 Descending FlightAware
11:03PM 43.5850 -78.8820 292° West 285 328 10,000 -1,102 Descending FlightAware
11:04PM 43.5980 -78.9250 293° West 275 316 9,500 -840 Descending FlightAware
11:04PM 43.6070 -78.9560 292° West 261 300 9,300 -450 Descending FlightAware
11:04PM 43.6160 -78.9860 293° West 248 285 9,200 -308 Descending FlightAware
11:05PM 43.6250 -79.0150 293° West 242 278 9,100 -293 Descending FlightAware
11:05PM 43.6340 -79.0430 294° West 239 275 9,000 -667 Descending FlightAware
11:05PM 43.6450 -79.0780 293° West 240 276 8,600 -1,091 Descending FlightAware
11:06PM 43.6530 -79.1060 292° West 239 275 8,200 -1,024 Descending FlightAware
11:06PM 43.6620 -79.1350 293° West 236 272 7,900 -857 Descending FlightAware
11:06PM 43.6680 -79.1550 293° West 235 270 7,700 -882 Descending FlightAware
11:07PM 43.6760 -79.1830 292° West 232 267 7,400 -1,050 Descending FlightAware
11:07PM 43.6850 -79.2100 295° West 231 266 7,000 -1,317 Descending FlightAware
11:07PM 43.6930 -79.2380 292° West 240 276 6,500 -1,200 Descending FlightAware
11:08PM 43.7040 -79.2730 294° West 250 288 6,100 -955 Descending FlightAware
11:08PM 43.7140 -79.3030 295° West 250 288 5,800 -686 Descending FlightAware
11:08PM 43.7230 -79.3230 302° West 248 285 5,700 -514 Descending FlightAware
11:09PM 43.7330 -79.3500 297° West 240 276 5,500 -514 Descending FlightAware
11:09PM 43.7420 -79.3710 301° West 235 270 5,400 -171 Descending FlightAware
11:09PM 43.7520 -79.3960 299° West 221 254 5,400 -267 Level FlightAware
11:10PM 43.7630 -79.4250 298° West 202 232 5,200 -450 Descending FlightAware
11:10PM 43.7700 -79.4430 298° West 195 224 5,100 -273 Descending FlightAware
11:10PM 43.7710 -79.4490 283° West 195 224 5,100 -1,688 Level FlightAware
11:10PM 43.7600 -79.4800 244° Southwest 202 232 4,200 -1,867 Descending FlightAware
11:11PM 43.7480 -79.4980 227° Southwest 193 222 3,700 -1,950 Descending FlightAware
11:11PM 43.7350 -79.5160 225° Southwest 197 227 2,900 -1,714 Descending FlightAware
11:11PM 43.7220 -79.5350 227° Southwest 188 216 2,500 -1,227 Descending FlightAware
11:12PM 43.7080 -79.5550 226° Southwest 173 199 2,000 -1,429 Descending FlightAware
11:12PM 43.6980 -79.5690 225° Southwest 171 197 1,500 -1,371 Descending FlightAware
11:12PM 43.6900 -79.5810 227° Southwest 162 186 1,200 171 Descending FlightAware
11:13PM 43.6790 -79.5970 226° Southwest 172 198 1,600 1,800 Climbing FlightAware
11:13PM 43.6670 -79.6110 220° Southwest 174 200 2,400 2,800 Climbing FlightAware
11:13PM 43.6590 -79.6140 195° South 177 204 3,000 3,120 Climbing FlightAware
11:13PM 43.6460 -79.6170 189° South 183 211 3,700 2,000 Climbing FlightAware
11:14PM 43.6350 -79.6190 187° South 185 213 4,000 462 Climbing FlightAware
11:14PM 43.6170 -79.6070 154° Southeast 202 232 4,000  Level FlightAware
11:14PM 43.6150 -79.6020 119° Southeast 202 232 4,000  Level FlightAware
11:14PM 43.6120 -79.5890 108° East 200 230 4,000  Level FlightAware
11:15PM 43.6140 -79.5650 83° East 202 232 4,000  Level FlightAware
11:15PM 43.6190 -79.5320 78° East 209 241 4,000  Level FlightAware
11:15PM 43.6240 -79.5200 60° Northeast 210 242 4,000  Level FlightAware
11:16PM 43.6380 -79.5020 43° Northeast 212 244 4,000  Level FlightAware
11:16PM 43.6530 -79.4820 44° Northeast 212 244 4,000  Level FlightAware
11:16PM 43.6670 -79.4640 43° Northeast 213 245 4,000 -133 Level FlightAware
11:17PM 43.6840 -79.4410 44° Northeast 208 239 3,900 -400 Descending FlightAware
11:17PM 43.6970 -79.4230 45° Northeast 204 235 3,700 -750 Descending FlightAware
11:17PM 43.7110 -79.4040 44° Northeast 202 232 3,400 -732 Descending FlightAware
11:18PM 43.7240 -79.3860 45° Northeast 197 227 3,200 -514 Descending FlightAware
11:18PM 43.7350 -79.3760 33° Northeast 192 221 3,100 -600 Descending FlightAware
11:18PM 43.7400 -79.3740 16° North 191 220 3,000 -400 Descending FlightAware
11:18PM 43.7480 -79.3750 355° North 186 214 3,000  Level FlightAware
11:18PM 43.7560 -79.3810 332° Northwest 183 211 3,000  Level FlightAware
11:19PM 43.7670 -79.3940 320° Northwest 184 212 3,000  Level FlightAware
11:19PM 43.7750 -79.4040 318° Northwest 183 211 3,000  Level FlightAware
11:19PM 43.7810 -79.4120 316° Northwest 181 208 3,000  Level FlightAware
11:19PM 43.7830 -79.4170 299° West 181 208 3,000 600 Level FlightAware
11:19PM 43.7840 -79.4230 283° West 180 207 3,100  Climbing FlightAware
11:19PM 43.7790 -79.4470 254° West 181 208 3,000 -255 Descending FlightAware
11:20PM 43.7660 -79.4710 233° Southwest 185 213 2,900 -522 Descending FlightAware
11:20PM 43.7540 -79.4890 227° Southwest 180 207 2,600 -923 Descending FlightAware
11:21PM 43.7420 -79.5050 224° Southwest 165 190 2,300 -800 Descending FlightAware
11:21PM 43.7310 -79.5210 226° Southwest 156 180 2,000 -750 Descending FlightAware
11:21PM 43.7230 -79.5340 230° Southwest 152 175 1,800 -686 Descending FlightAware
11:22PM 43.7140 -79.5460 224° Southwest 141 162 1,600 -783 Descending FlightAware
11:22PM 43.7030 -79.5620 226° Southwest 135 155 1,200 -720 Descending FlightAware
11:22PM 43.6920 -79.5780 226° Southwest 134 154 1,000 -612 Descending FlightAware
11:23PM 43.6820 -79.5930 227° Southwest 134 154 700 -720 Descending FlightAware
11:23PM 43.6740 -79.6050 227° Southwest 120 138 -1,750 Descending FlightAware

Login

Don't have an account? Register now (free) for customized features, flight alerts, and more!